FW1828 Weather Reports


time (UTC)temp
C
wind
direction
speed
KPH
gust
KPH
rain 1hr
cm
rain 24hr
cm
rain mn
cm
humidity
%
barometer
mb
20260503050031 3 286 0.0 3.2 0.00 0.03 0.00 84 1017.5
20260503044530 3 124 0.0 3.2 0.00 0.03 0.00 83 1017.5
20260503043027 3 269 0.0 1.6 0.00 0.03 0.00 82 1017.4
20260503041521 3 231 0.0 1.6 0.00 0.03 0.00 81 1017.4
20260503040028 4 89 0.0 3.2 0.00 0.03 0.03 79 1017.3
20260503034516 5 89 0.0 3.2 0.00 0.03 0.03 78 1017.2
20260503033014 5 253 1.6 3.2 0.00 0.03 0.03 77 1017.2
20260503031513 5 223 1.6 3.2 0.00 0.03 0.03 73 1016.9
20260503030010 6 46 0.0 1.6 0.00 0.03 0.03 71 1016.7
20260503024508 7 89 0.0 1.6 0.00 0.03 0.03 68 1016.8
20260503023004 7 135 0.0 3.2 0.00 0.03 0.03 64 1016.8
20260503021608 8 269 0.0 3.2 0.00 0.03 0.03 61 1016.8
20260503020106 9 344 1.6 8.0 0.00 0.03 0.03 56 1016.7
20260503014553 9 324 0.0 3.2 0.00 0.03 0.03 59 1016.4
20260503013049 10 336 1.6 4.8 0.00 0.03 0.03 52 1016.2
20260503011604 11 343 3.2 8.0 0.00 0.03 0.03 50 1016.0
20260503010058 11 269 3.2 11.3 0.00 0.03 0.03 47 1015.8
20260503004555 12 13 4.8 11.3 0.00 0.03 0.03 45 1015.3
20260503003101 12 321 6.4 19.3 0.00 0.03 0.03 44 1015.3
20260503001600 12 331 8.0 17.7 0.00 0.03 0.03 42 1014.9
20260503000052 13 46 8.0 20.9 0.00 0.03 0.03 41 1014.6
20260502234555 13 309 6.4 11.3 0.00 0.03 0.03 41 1014.4
20260502233051 14 351 6.4 25.7 0.00 0.03 0.03 39 1014.0
20260502231547 15 293 8.0 33.8 0.00 0.03 0.03 38 1013.8
20260502230047 15 329 11.3 20.9 0.00 0.03 0.03 39 1013.7
20260502224546 15 30 9.7 17.7 0.00 0.03 0.03 39 1013.6
20260502223046 16 325 6.4 20.9 0.00 0.03 0.03 39 1013.4
20260502221547 16 37 8.0 22.5 0.00 0.03 0.03 36 1013.1
20260502220116 17 42 9.7 27.4 0.00 0.03 0.03 36 1012.8
20260502214546 16 72 8.0 24.1 0.00 0.03 0.03 36 1012.5
20260502213045 17 318 17.7 33.8 0.00 0.03 0.03 34 1012.3
20260502211544 17 323 11.3 20.9 0.00 0.03 0.03 37 1012.1
20260502210043 17 298 6.4 14.5 0.00 0.03 0.03 37 1011.9
20260502204542 17 72 3.2 14.5 0.00 0.03 0.03 35 1011.7
20260502203057 18 233 6.4 17.7 0.00 0.03 0.03 37 1011.7
20260502201541 17 203 3.2 17.7 0.00 0.03 0.03 37 1011.9
20260502200035 17 236 8.0 16.1 0.00 0.03 0.03 40 1011.9
20260502194541 17 124 3.2 19.3 0.00 0.03 0.03 44 1012.1
20260502193033 17 135 6.4 12.9 0.00 0.03 0.03 38 1012.4
20260502191539 16 178 3.2 12.9 0.00 0.03 0.03 40 1012.6
20260502190032 16 152 4.8 11.3 0.00 0.03 0.03 40 1013.0
20260502184537 16 198 6.4 12.9 0.00 0.03 0.03 41 1012.9
20260502183029 16 63 1.6 11.3 0.00 0.03 0.03 45 1012.9
20260502181532 16 46 1.6 6.4 0.00 0.03 0.03 44 1013.2
20260502163036 12 108 1.6 6.4 0.00 0.03 0.03 52 1015.3
20260502161521 11 63 0.0 8.0 0.00 0.03 0.03 50 1015.5
20260502151508 11 28 0.0 3.2 0.03 0.03 0.03 54 1015.7
20260502123006 11 70 3.2 12.9 0.00 0.00 0.00 53 1015.1
20260502121600 11 20 0.0 6.4 0.00 0.00 0.00 54 1014.8
20260502114554 11 89 0.0 11.3 0.00 0.00 0.00 59 1014.8
20260502113053 11 20 0.0 4.8 0.00 0.00 0.00 61 1014.7
20260502111549 11 63 0.0 3.2 0.00 0.00 0.00 62 1014.7
20260502110045 11 35 0.0 3.2 0.00 0.00 0.00 66 1014.5
20260502104542 11 28 0.0 6.4 0.00 0.00 0.00 66 1014.5
20260502103043 11 76 0.0 9.7 0.00 0.00 0.00 66 1014.3
20260502101543 11 46 1.6 4.8 0.00 0.00 0.00 66 1014.2
20260502071534 12 89 0.0 3.2 0.00 0.00 0.00 72 1013.5
20260502070045 11 1 0.0 3.2 0.00 0.00 0.00 74 1013.4
20260502064539 12 314 0.0 3.2 0.00 0.00 0.00 71 1013.6
20260502063030 12 178 0.0 4.8 0.00 0.00 0.00 71 1013.8
20260502061526 12 46 0.0 3.2 0.00 0.00 0.00 70 1013.9
20260502060027 12 89 0.0 3.2 0.00 0.00 0.00 70 1014.2
20260502054526 12 314 0.0 3.2 0.00 0.00 0.00 72 1014.2
20260502053023 12 342 0.0 4.8 0.00 0.00 0.00 72 1014.3
20260502051530 12 41 1.6 4.8 0.00 0.00 0.00 78 1014.2